TimeEST,TemperatureF,Dew PointF,Humidity,Sea Level PressureIn,VisibilityMPH,Wind Direction,Wind SpeedMPH,Gust SpeedMPH,PrecipitationIn,Events,Conditions,WindDirDegrees,DateUTC
12:15 AM,41.0,39.2,93,29.89,10.0,West,9.2,-,N/A,,Overcast,270,2013-02-05 05:15:00
12:35 AM,41.0,39.2,93,29.89,10.0,West,6.9,-,N/A,,Overcast,270,2013-02-05 05:35:00
12:55 AM,41.0,41.0,100,29.89,10.0,West,9.2,-,N/A,,Overcast,280,2013-02-05 05:55:00
1:15 AM,41.0,39.2,93,29.88,10.0,WNW,5.8,-,N/A,,Overcast,290,2013-02-05 06:15:00
1:35 AM,41.0,39.2,93,29.88,10.0,WNW,5.8,-,N/A,,Overcast,290,2013-02-05 06:35:00
1:55 AM,41.0,39.2,93,29.89,10.0,West,6.9,-,N/A,,Overcast,280,2013-02-05 06:55:00
2:15 AM,41.0,39.2,93,29.89,10.0,West,6.9,-,N/A,,Overcast,280,2013-02-05 07:15:00
2:35 AM,41.0,39.2,93,29.89,10.0,West,8.1,-,N/A,,Overcast,270,2013-02-05 07:35:00
2:55 AM,41.0,39.2,93,29.89,10.0,West,4.6,-,N/A,,Overcast,260,2013-02-05 07:55:00
3:15 AM,41.0,41.0,100,29.88,10.0,West,5.8,-,N/A,,Overcast,260,2013-02-05 08:15:00
3:35 AM,41.0,39.2,93,29.88,10.0,West,8.1,-,N/A,,Overcast,270,2013-02-05 08:35:00
3:55 AM,41.0,39.2,93,29.88,10.0,West,6.9,-,N/A,,Overcast,280,2013-02-05 08:55:00
4:15 AM,41.0,39.2,93,29.87,10.0,West,6.9,-,N/A,,Overcast,260,2013-02-05 09:15:00
4:35 AM,41.0,39.2,93,29.86,10.0,WSW,6.9,-,N/A,,Overcast,250,2013-02-05 09:35:00
4:55 AM,41.0,39.2,93,29.87,10.0,West,8.1,-,N/A,,Overcast,270,2013-02-05 09:55:00
5:15 AM,41.0,39.2,93,29.88,10.0,West,6.9,-,N/A,,Overcast,260,2013-02-05 10:15:00
5:35 AM,41.0,39.2,93,29.88,10.0,West,8.1,-,N/A,,Overcast,270,2013-02-05 10:35:00
5:55 AM,41.0,39.2,93,29.88,10.0,West,9.2,-,N/A,,Overcast,270,2013-02-05 10:55:00
6:15 AM,41.0,39.2,93,29.88,10.0,West,10.4,-,N/A,,Overcast,280,2013-02-05 11:15:00
6:35 AM,41.0,39.2,93,29.88,10.0,West,8.1,-,N/A,,Overcast,270,2013-02-05 11:35:00
7:15 AM,41.0,37.4,87,29.88,10.0,West,10.4,-,N/A,,Overcast,280,2013-02-05 12:15:00
7:55 AM,41.0,37.4,87,29.90,10.0,West,6.9,-,N/A,,Overcast,280,2013-02-05 12:55:00
8:15 AM,41.0,37.4,87,29.91,5.0,West,10.4,16.1,N/A,,Overcast,280,2013-02-05 13:15:00
8:35 AM,41.0,37.4,87,29.92,7.0,WNW,10.4,17.3,N/A,,Overcast,290,2013-02-05 13:35:00
9:15 AM,41.0,39.2,93,29.93,5.0,WNW,9.2,17.3,N/A,,Overcast,290,2013-02-05 14:15:00
9:35 AM,41.0,39.2,93,29.93,5.0,WNW,9.2,-,N/A,,Overcast,290,2013-02-05 14:35:00
9:55 AM,41.0,39.2,93,29.93,7.0,WNW,8.1,-,N/A,,Overcast,290,2013-02-05 14:55:00
10:15 AM,41.0,37.4,87,29.95,10.0,WNW,10.4,18.4,N/A,,Overcast,300,2013-02-05 15:15:00
10:35 AM,41.0,35.6,81,29.95,10.0,WNW,11.5,-,N/A,,Overcast,300,2013-02-05 15:35:00
10:55 AM,42.8,35.6,76,29.94,10.0,WNW,11.5,21.9,N/A,,Overcast,290,2013-02-05 15:55:00
11:15 AM,42.8,35.6,76,29.95,10.0,WNW,9.2,19.6,N/A,,Overcast,290,2013-02-05 16:15:00
11:35 AM,42.8,37.4,81,29.95,10.0,WNW,10.4,16.1,N/A,,Overcast,290,2013-02-05 16:35:00
11:55 AM,42.8,37.4,81,29.95,10.0,WNW,8.1,-,N/A,,Overcast,290,2013-02-05 16:55:00
12:15 PM,42.8,37.4,81,29.95,10.0,WNW,8.1,-,N/A,,Overcast,290,2013-02-05 17:15:00
12:35 PM,44.6,35.6,71,29.93,10.0,West,10.4,-,N/A,,Overcast,270,2013-02-05 17:35:00
12:55 PM,44.6,35.6,71,29.94,10.0,West,16.1,21.9,N/A,,Overcast,280,2013-02-05 17:55:00
1:15 PM,44.6,35.6,71,29.93,10.0,WNW,10.4,16.1,N/A,,Overcast,290,2013-02-05 18:15:00
1:35 PM,44.6,35.6,71,29.93,10.0,West,11.5,17.3,N/A,,Overcast,280,2013-02-05 18:35:00
1:55 PM,46.4,35.6,66,29.92,10.0,West,12.7,-,N/A,,Overcast,260,2013-02-05 18:55:00
2:15 PM,46.4,35.6,66,29.91,10.0,West,11.5,17.3,N/A,,Mostly Cloudy,270,2013-02-05 19:15:00
2:35 PM,46.4,35.6,66,29.90,10.0,West,13.8,19.6,N/A,,Scattered Clouds,270,2013-02-05 19:35:00
2:55 PM,46.4,35.6,66,29.90,10.0,West,9.2,-,N/A,,Mostly Cloudy,270,2013-02-05 19:55:00
3:15 PM,46.4,33.8,62,29.90,10.0,West,13.8,-,N/A,,Overcast,260,2013-02-05 20:15:00
3:35 PM,48.2,33.8,58,29.90,10.0,West,10.4,-,N/A,,Overcast,280,2013-02-05 20:35:00
3:55 PM,48.2,33.8,58,29.90,10.0,West,9.2,16.1,N/A,,Overcast,260,2013-02-05 20:55:00
4:15 PM,48.2,33.8,58,29.90,10.0,West,9.2,-,N/A,,Overcast,270,2013-02-05 21:15:00
4:35 PM,48.2,33.8,58,29.90,10.0,WSW,10.4,-,N/A,,Overcast,250,2013-02-05 21:35:00
4:55 PM,48.2,35.6,62,29.89,10.0,WSW,6.9,-,N/A,,Overcast,250,2013-02-05 21:55:00
5:15 PM,48.2,35.6,62,29.89,10.0,West,8.1,-,N/A,,Overcast,260,2013-02-05 22:15:00
5:35 PM,46.4,35.6,66,29.88,10.0,WSW,10.4,-,N/A,,Overcast,250,2013-02-05 22:35:00
5:55 PM,46.4,35.6,66,29.88,10.0,West,6.9,-,N/A,,Mostly Cloudy,260,2013-02-05 22:55:00
6:15 PM,46.4,35.6,66,29.88,10.0,WSW,8.1,-,N/A,,Scattered Clouds,250,2013-02-05 23:15:00
6:35 PM,44.6,35.6,71,29.89,10.0,WSW,6.9,-,N/A,,Scattered Clouds,250,2013-02-05 23:35:00
6:55 PM,44.6,33.8,66,29.90,10.0,West,6.9,-,N/A,,Mostly Cloudy,260,2013-02-05 23:55:00
7:15 PM,44.6,33.8,66,29.90,10.0,West,8.1,-,N/A,,Overcast,260,2013-02-06 00:15:00
7:35 PM,44.6,33.8,66,29.91,10.0,West,9.2,-,N/A,,Overcast,260,2013-02-06 00:35:00
7:55 PM,44.6,33.8,66,29.91,10.0,West,9.2,-,N/A,,Overcast,270,2013-02-06 00:55:00
8:15 PM,44.6,33.8,66,29.92,10.0,West,9.2,-,N/A,,Overcast,280,2013-02-06 01:15:00
8:35 PM,46.4,33.8,62,29.93,10.0,West,11.5,20.7,N/A,,Overcast,280,2013-02-06 01:35:00
8:55 PM,46.4,33.8,62,29.95,10.0,WNW,12.7,17.3,N/A,,Overcast,290,2013-02-06 01:55:00
9:15 PM,44.6,33.8,66,29.96,10.0,WNW,9.2,-,N/A,,Mostly Cloudy,290,2013-02-06 02:15:00
9:35 PM,44.6,33.8,66,29.97,10.0,WNW,10.4,-,N/A,,Clear,300,2013-02-06 02:35:00
10:15 PM,42.8,32.0,66,29.99,10.0,NW,13.8,19.6,N/A,,Clear,320,2013-02-06 03:15:00
10:35 PM,42.8,32.0,66,30.00,10.0,NNW,10.4,-,N/A,,Clear,330,2013-02-06 03:35:00
10:55 PM,41.0,32.0,70,30.01,10.0,NW,10.4,17.3,N/A,,Clear,320,2013-02-06 03:55:00
11:15 PM,41.0,32.0,70,30.02,10.0,NW,11.5,16.1,N/A,,Clear,320,2013-02-06 04:15:00
11:35 PM,39.2,32.0,75,30.03,10.0,NNW,5.8,-,N/A,,Clear,330,2013-02-06 04:35:00
11:55 PM,37.4,32.0,81,30.04,10.0,NNW,4.6,-,N/A,,Scattered Clouds,340,2013-02-06 04:55:00